Weather in Raykonkoski

Russia / Republic of Karelia     61°55′26″N   31°33′46″E
temp.,
°C
wind,
m/s
gust,
m/s
humid.,
%
clouds,
%
prec.,
mm/h
press.,
hPa
HPBL,
m
28 february, sun
sun2800:00−3wsw2492100 0.0 1016119
03:00−4sw3797100 0.0 1014232
06:00−3s2697100 0.6 1011227
09:00−3ssw1398100 1.3 1011117
12:00−1sw129899 0.2 1012152
15:00+1wsw1210099 0.4 1015100
18:00+1wnw3798100 0.0 1016322
21:00−1w249787 0.0 1017113
1 march, mon
mon100:00−1w379780 0.0 1017343
03:000w499790 0.0 1016513
06:00+1w41197100 0.0 1014558
09:00+1w51293100 0.0 1013633
12:00+2w51295100 0.0 1011767
15:00+2w61395100 0.1 1010797
18:00+2wnw51295100 0.0 1008834
21:00+1wnw5138999 0.1 10081065
2 march, tue
tue200:00−1wnw5158624 0.0 1007676
03:00−2wnw5148812 0.0 1008623
06:00−3wnw311910 0.0 1006381
09:00−3wnw412911 0.0 1007495
12:00−1nw6118636 0.0 1007757
15:000nw6128557 0.1 10091216
18:00−3nnw5137586 0.1 10121069
21:00−4nw4138243 0.1 1015519
3 march, wed
wed300:00−5wnw310920 0.0 1015279
03:00−5wnw39950 0.0 1015258
06:00−5wnw4129416 0.0 1013385
09:00−4wnw4119427 0.0 1013382
12:00−2w499176 0.0 1011500
15:00−1w498988 0.0 1008641
18:00−1sw41097100 0.4 1002616
21:00+1w71497100 2.7 9961046
4 march, thu
thu400:00−1wnw5148598 0.2 993720
03:00−4wnw6148882 0.2 992911
06:00−4n8158897 0.3 9931114
09:00−7nnw7138098 0.4 997956
12:00−6nnw6108295 0.0 1000921
15:00−6nw598297 0.1 10021004
18:00−7nw51187100 0.1 1003825
21:00−9nw4118994 0.1 1004538